This is the latest recevied weather packets stored in our database for station/object ON7XX-13. If no packets are shown the sender has not sent any weather packets the latest 10 day(s).
| Time | Temp. | Humidity | Pressure | Rain* | Wind** | Luminosity | Snow |
|---|---|---|---|---|---|---|---|
| 1777806116 | 20° C | 87% | 1011.6 hPa | - | - | - | - |
| 1777805501 | 19.44° C | 90% | 1011.6 hPa | - | - | - | - |
| 1777804887 | 18.89° C | 90% | 1011.7 hPa | - | - | - | - |
| 1777804273 | 18.89° C | 91% | 1011.7 hPa | - | - | - | - |
| 1777803658 | 18.33° C | 90% | 1011.6 hPa | - | - | - | - |
| 1777803044 | 18.33° C | 91% | 1011.6 hPa | - | - | - | - |
| 1777802430 | 18.33° C | 92% | 1011.7 hPa | - | - | - | - |
| 1777801816 | 18.33° C | 92% | 1011.7 hPa | - | - | - | - |
| 1777801201 | 18.33° C | 95% | 1011.7 hPa | - | - | - | - |
| 1777800588 | 17.78° C | 96% | 1011.7 hPa | - | - | - | - |
| 1777799973 | 18.33° C | 94% | 1011.6 hPa | - | - | - | - |
| 1777799359 | 17.78° C | 94% | 1011.7 hPa | - | - | - | - |
| 1777798745 | 17.78° C | 97% | 1011.7 hPa | - | - | - | - |
| 1777798130 | 17.78° C | 94% | 1011.7 hPa | - | - | - | - |
| 1777797516 | 17.78° C | 93% | 1011.7 hPa | - | - | - | - |
| 1777796902 | 17.22° C | 92% | 1011.8 hPa | - | - | - | - |
| 1777796288 | 17.22° C | 93% | 1011.9 hPa | - | - | - | - |
| 1777795674 | 17.22° C | 93% | 1011.9 hPa | - | - | - | - |
| 1777795059 | 17.22° C | 90% | 1011.9 hPa | - | - | - | - |
| 1777794446 | 17.22° C | 90% | 1011.8 hPa | - | - | - | - |
| 1777793831 | 17.22° C | 90% | 1011.7 hPa | - | - | - | - |
| 1777793217 | 17.22° C | 88% | 1011.8 hPa | - | - | - | - |
| 1777792602 | 17.22° C | 89% | 1011.8 hPa | - | - | - | - |
| 1777791987 | 16.67° C | 91% | 1011.9 hPa | - | - | - | - |
| 1777791373 | 16.67° C | 89% | 1011.8 hPa | - | - | - | - |
* Rain since midnight (hover to see other rain measurements)
** Current wind speed in m/s (hover to see current wind gust speed)